Location: Aufkirchen
(47.9603°N, 11.3653°E)
Time: 09:48:18
(UTC+02:00)

Altair - Pass Details

Date: 02 August 2021
Orbit: 1501 x 1682 km, 47.2° (Epoch: 18 September)

Event Time Altitude Azimuth Distance (km) Brightness Sun altitude
Exits shadow 01:38:14 31° 149° (SSE) 2,442 8.1 -24.2°
Maximum altitude 01:39:18 32° 137° (SE) 2,407 8.1 -24.2°
Drops below altitude 10° 01:47:06 10° 79° (E) 3,676 9.7 -24.0°
Sets 01:50:29 0° 70° (ENE) 4,648 10.4 -24.0°
